Regional Weather Roundup
Issued by NWS

Home | Current Version | Previous Version | Text Only | Print | Product List | Glossary Off
Versions: 1 2 3 4 5 6 7 8 9 10 11 12 13 14 15 16 17 18 19 20 21 22 23 24 25 26 27 28 29 30 31 32 33 34 35 36 37 38 39 40 41 42 43 44 45 46 47 48 49 50

000
ASUS43 KMPX 251510
RWRMN
WEATHER ROUNDUP FOR MINNESOTA
NATIONAL WEATHER SERVICE TWIN CITIES/CHANHASSEN MN
1000 AM CDT SUN JUN 25 2017


NOTE: "FAIR" INDICATES FEW OR NO CLOUDS BELOW 12,000 FEET WITH NO
SIGNIFICANT WEATHER AND/OR OBSTRUCTIONS TO VISIBILITY. N/A MEANS
CURRENT SKY AND/OR WEATHER CONDITIONS ARE NOT AVAILABLE.

MNZ060>063-068>070-251600-
   Twin Cities Metro

CITY           SKY/WX    TMP DP  RH WIND       PRES   REMARKS
TWIN CITIES    CLOUDY    56  49  77 NW15G22   30.14S
ST PAUL        CLOUDY    57  51  80 W20G28    30.14R
CRYSTAL        CLOUDY    56  47  71 NW15G24   30.13S
BLAINE         CLOUDY    57  52  82 W14       30.13R
LAKEVILLE      CLOUDY    54  54 100 W8G17     30.15S
EDEN PRAIRIE   LGT RAIN  56  49  77 NW14G25   30.14S
SOUTH ST PAUL  CLOUDY    56  50  80 NW10G20   30.13S
LAKE ELMO      CLOUDY    55  50  82 W8G18     30.13S
$$
MNZ001>005-007-008-013>017-022>024-027-028-251600-
   Northwest Minnesota

CITY           SKY/WX    TMP DP  RH WIND       PRES   REMARKS
BEMIDJI        CLOUDY    55  47  73 NW15      30.17S
HALLOCK        SUNNY     57  46  67 NW14      30.22S
ROSEAU         MOSUNNY   55  50  82 NW10      30.18S
WARROAD        MOSUNNY   55  50  82 NW14      30.18S
THIEF RVR FALL SUNNY     56  42  59 NW16      30.22S
CROOKSTON      SUNNY     57  45  62 NW9       30.24S
FOSSTON        MOSUNNY   54  46  76 NW13G18   30.21S
DETROIT LAKES  SUNNY     55  41  58 N16G23    30.23S
MOORHEAD       SUNNY     59  41  51 N13       30.25S
PARK RAPIDS    MOSUNNY   57  41  55 NW16      30.18R
MAHNOMEN       FAIR      56  42  59 N18       30.22S
$$
MNZ006-009>011-018-025>026-251600-
   North Central Minnesota

CITY           SKY/WX    TMP DP  RH WIND       PRES   REMARKS
BAUDETTE       LGT RAIN  54  49  83 NW10      30.15S
FLAG ISLAND    PTSUNNY   54  46  76 NW8       30.15S
INTL FALLS     CLOUDY    52  46  80 NW9       30.12S
WASKISH        CLOUDY    54  46  76 NW8       30.16S
BIG FORK       LGT RAIN  52  48  87 NW5       30.13S
LONGVILLE      MOSUNNY   55  46  71 NW12G17   30.15R
GRAND RAPIDS   CLOUDY    52  47  83 N17       30.14R
CRANE LAKE     LGT RAIN  50  48  93 NW9       30.09S
ORR            LGT RAIN  48  45  87 NW14      30.08R
COOK           LGT RAIN  48  46  93 NW6       30.09R
WALKER         PTSUNNY   53  44  69 NW16G24   30.16S
$$
MNZ012-019>021-037-251600-
   Northeast Minnesota

CITY           SKY/WX    TMP DP  RH WIND       PRES   REMARKS
DULUTH         LGT RAIN  55  54  96 NW7       30.03S
ELY            RAIN      52  50  93 N3        30.04R
HIBBING        RAIN      48  47  96 NW17G29   30.09R FOG
EVELETH        RAIN      53  48  84 NW13G25   30.08R
DULUTH HARBOR  CLOUDY    61  54  77 W6        30.04S
TWO HARBORS    CLOUDY    63  54  72 CALM      30.01S
GRAND MARAIS     N/A     51  48  89 CALM      30.01R
G MARAIS ARPRT DRIZZLE   52  46  82 N3        30.03S
$$
MNZ029>031-032-039>041-046>048-054>057-064-251600-
   West Central Minnesota

CITY           SKY/WX    TMP DP  RH WIND       PRES   REMARKS
FERGUS FALLS   SUNNY     57  43  58 N15       30.22S
WHEATON        SUNNY     59  39  47 NW12G17   30.26F
MORRIS         SUNNY     61  43  51 NW18      30.23S
ALEXANDRIA     MOSUNNY   58  44  60 NW14      30.22R
ELBOW LAKE     FAIR      55  42  61 W15G22    30.24S
WADENA         PTSUNNY   57  45  62 NW17G23   30.19S
GLENWOOD       SUNNY     57  45  62 NW20      30.21S
APPLETON       SUNNY     61  39  44 NW12G22   30.24S
BENSON         SUNNY     61  41  48 N18G25    30.25S
ORTONVILLE     SUNNY     59  43  55 N14       30.26R
MADISON        MOSUNNY   63  46  55 NW16G22   30.26R
WILLMAR        FAIR      61  46  59 NW20      30.23S
$$
MNZ033>034-036-042>043-049>051-058-059-251600-
   Central Minnesota

CITY           SKY/WX    TMP DP  RH WIND       PRES   REMARKS
ST CLOUD       CLOUDY    56  48  74 NW16G23   30.16R
SAUK CENTRE    FAIR      58  44  58 NW16G24   30.19S
PAYNESVILLE    MOSUNNY   59  44  58 NW13G26   30.20R
AITKIN         CLOUDY    55  48  76 NW13G18   30.11S
PINE RIVER     PTSUNNY   54  46  76 NW12G18   30.19R
BRAINERD       CLOUDY    55  46  71 NW16G24   30.16R
STAPLES        PTSUNNY   55  45  67 NW13      30.17F
LONG PRAIRIE   FAIR      55  43  62 W17G26    30.19S
LITTLE FALLS   PTSUNNY   57  41  54 NW16G24   30.16S
LITCHFIELD     SUNNY     61  46  59 NW16G25   30.19R
BUFFALO        CLOUDY    56  47  72 W14G22    30.17R
MAPLE LAKE     CLOUDY    56  50  79 NW15G21   30.17S
HUTCHINSON     MOSUNNY   59  47  64 NW20G26   30.19S
$$
MNZ037-044-045-052-053-251600-
   East Central Minnesota

CITY           SKY/WX    TMP DP  RH WIND       PRES   REMARKS
PRINCETON      CLOUDY    57  50  77 W18G26    30.14R
MORA           LGT RAIN  54  50  87 NW10      30.13R
CAMBRIDGE      CLOUDY    59  46  63 NW16G22   30.11R
RUSH CITY      RAIN      54  52  94 NW7       30.11R
MOOSE LAKE     HVY RAIN  52  50  93 NW12      30.07R
HINCKLEY       LGT RAIN  55  54  94 NW7       30.10R
CLOQUET        RAIN      54  48  82 NW15G25   30.06R
MCGREGOR       CLOUDY    54  50  87 NW14G20   30.11S
$$
MNZ071>073-080-081-089-090-097-098-251600-
   Southwest Minnesota

CITY           SKY/WX    TMP DP  RH WIND       PRES   REMARKS
MONTEVIDEO     SUNNY     61  45  55 N15G23    30.25R
GRANITE FALLS  MOSUNNY   60  44  56 NW16G26   30.26S
CANBY          MOSUNNY   60  44  55 NW14G22   30.27F
MARSHALL       MOSUNNY   60  44  55 NW20G28   30.25F
REDWOOD FALLS  SUNNY     59  41  51 NW18G31   30.23S
OLIVIA         MOSUNNY   59  45  58 NW20G25   30.21S
PIPESTONE      MOSUNNY   59  45  58 NW15G23   30.28S
WINDOM         SUNNY     59  41  51 NW22G31   30.24S
WORTHINGTON    SUNNY     59  44  57 NW17G25   30.27F
JACKSON        SUNNY     59  41  51 NW18G30   30.25S
TRACY          MOSUNNY   59  45  59 NW16G22   30.26F
SLAYTON        SUNNY     57  44  61 NW20G26   30.27S
$$
MNZ065>067-074>077-082>085-091>093-251600-
   South Central Minnesota

CITY           SKY/WX    TMP DP  RH WIND       PRES   REMARKS
MANKATO        CLOUDY    56  46  69 NW12G21   30.20R
NEW ULM        SUNNY     59  43  55 NW20G30   30.20S
ST JAMES       SUNNY     61  43  51 NW23G29   30.23S
FAIRMONT       SUNNY     59  43  55 NW18G28   30.22F
GLENCOE        CLOUDY    59  51  74 W20       30.17S
FARIBAULT      CLOUDY    54  48  82 W10       30.17S
OWATONNA       CLOUDY    54  48  82 W15G21    30.18S
WASECA         CLOUDY    55  48  76 W15       30.20S
ALBERT LEA     CLOUDY    54  46  76 NW9G24    30.20R
$$
MNZ078>079-086>088-094>096-251600-
   Southeast Minnesota

CITY           SKY/WX    TMP DP  RH WIND       PRES   REMARKS
ROCHESTER      CLOUDY    54  49  83 NW12G24   30.16R
RED WING       LGT RAIN  57  48  72 W9G17     30.12S
STANTON        CLOUDY    56  50  80 W15       30.14S
DODGE CENTER   CLOUDY    52  48  87 W16       30.17R
WINONA         CLOUDY    59  50  72 W10       30.12S
AUSTIN         CLOUDY    54  46  76 W16G22    30.18S
PRESTON        CLOUDY    52  49  89 W13       30.16S FOG
$$
ABBREVIATIONS USED IN REMARKS
   TC - TEMPERATURES IN CELSIUS
  WCI - WIND CHILL INDEX
   HX - HEAT INDEX
  VSB - VISIBILITY
$$



USA.gov is the U.S. government's official web portal to all federal, state and local government web resources and services.